SCP
0 0 0 0 0 0 0 0 0 0 0 0 0 0 0 0 0 0 0 0 0 0 0 0 0 0 0 0 0 0 0 0 0 0 0 0 0 0 0 0 0 0 0
0 0 0 0 0 0 0 0 0 0 0 0 0 0 0 0 0 0 0 0 0 0 0 0 0 0 0 0 0 0 0 0 0 0 0 0 0 0 0 0 0 0 0
0 0 0 0 0 0 0 0 0 0 0 0 0 0 0 0 0 0 0 0 0 0 0 0 0 0 0 0 0 0 0 0 0 0 0 0 0 0 0 0 0 0 0
0 0 0 0 0 0 0 0 0 0 0 0 0 0 0 0 0 0 0 0 0 0 0 0 0 0 0 0 0 0 0 0 0 0 0 0 0 0 0 0 0 0 0
0 0 0 0 0 0 0 0 0 0 0 0 0 0 0 0 0 0 0 0 0 0 0 0 0 0 0 0 0 0 0 0 0 0 0 0 0 0 0 0 0 0 0
0 0 0 0 0 0 0 0 0 0 0 0 0 0 0 0 0 0 0 0 0 0 0 0 0 0 0 0 0 0 0 0 0 0 0 0 0 0 0 0 0 0 0
0 0 0 0 0 0 0 0 0 0 0 0 0 0 0 0 0 0 0 0 0 0 0 0 0 0 0 0 0 0 0 0 0 0 0 0 0 0 0 0 0 0 0
0 0 0 0 0 0 0 0 0 0 0 0 0 0 0 0 0 0 0 0 0 0 0 0 0 0 0 0 0 0 0 0 0 0 0 0 0 0 0 0 0 0 0
0 0 0 0 0 0 0 0 0 0 0 0 0 0 0 0 0 0 0 0 0 0 0 0 0 0 0 0 0 0 0 0 0 0 0 0 0 0 0 0 0 0 0
0 0 0 0 0 0 0 0 0 0 0 0 0 0 0 0 0 0 0 0 0 0 0 0 0 0 0 0 0 0 0 0 0 0 0 0 0 0 0 0 0 0 0
0 0 0 0 0 0 0 0 0 0 0 0 0 0 0 0 0 0 0 0 0 0 0 0 0 0 0 0 0 0 0 0 0 0 0 0 0 0 0 0 0 0 0
0 0 0 0 0 0 0 0 0 0 0 0 0 0 0 0 0 0 0 0 0 0 0 0 0 0 0 0 0 0 0 0 0 0 0 0 0 0 0 0 0 0 0
0 0 0 0 0 0 0 0 0 0 0 0 0 0 0 0 0 0 0 0 0 0 0 0 0 0 0 0 0 0 0 0 0 0 0 0 0 0 0 0 0 0 0
0 0 0 0 0 0 0 0 0 0 0 0 0 0 0 0 0 0 0 0 0 0 0 0 0 0 0 0 0 0 0 0 0 0 0 0 0 0 0 0 0 0 0
0 0 0 0 0 0 0 0 0 0 0 0 0 0 0 0 0 0 0 0 0 0 0 0 0 0 0 0 0 0 0 0 0 0 0 0 0 0 0 0 0 0 0
0 0 0 0 0 0 0 0 0 0 0 0 0 0 0 0 0 0 0 0 0 0 0 0 0 0 0 0 0 0 0 0 0 0 0 0 0 0 0 0 0 0 0
0 0 0 0 0 0 0 0 0 0 0 0 0 0 0 0 0 0 0 0 0 0 0 0 0 0 0 0 0 0 0 0 0 0 0 0 0 0 0 0 0 0 0
0 0 0 0 0 0 0 0 0 0 0 0 0 0 0 0 0 0 0 0 0 0 0 0 0 0 0 0 0 0 0 0 0 0 0 0 0 0 0 0 0 0 0
-0 0 0 0 0 0 0 0 0 0 0 0 0 0 0 0 0 0 0 0 0 0 0 0 0 0 0 0 0 0 0 0 0 0 0 0 0 0 0 0 0 0 0
-0 -0 -0 0 0 0 0 0 0 0 0 0 0 0 0 0 0 0 0 0 0 0 0 0 0 0 0 0 0 0 0 0 0 0 0 0 0 0 0 0 0 0 0
-0 0 0 0 0 0 0 0 0 0 0 0 0 0 0 0 0 0 0 0 0 0 0 0 0 0 0 0 0 0 0 0 0 0 0 0 0 0 0 0 0 0 0
-0 -0 0 0 0 0 0 0 0 0 0 0 0 0 0 0 0 0 0 0 0 0 0 0 0 0 0 0 0 0 0 0 0 0 0 0 0 0 0 0 0 0 0
0 -0 -0 -0 0 0 0 0 0 0 0 0 0 0 0 0 0 0 0 0 0 0 0 0 0 0 0 0 0 0 0 0 0 0 0 0 0 0 0 0 0 0 0
0 0 0 0 0 0 -0 0 0 0 0 0 0 0 0 0 0 0 0 0 0 0 0 0 0 0 0 0 0 0 0 0 0 0 0 0 0 0 0 0 0 0 0
0 0 0 0 0 0 0 0 0 0 0 0 0 0 0 0 0 0 0 0 0 0 0 0 0 0 0 0 0 0 0 0 0 0 0 0 0 0 0 0 0 0 0
0 0 0 0 0 0 0 0 0 0 0 0 0 0 0 0 0 0 0 0 0 0 0 0 0 0 0 0 0 0 0 0 0 0 0 0 0 0 0 0 0 0 0
Wind_Speed_500mb
59 57 53 50 50 47 46 43 39 35 32 29 26 24 21 19 19 18 16 16 18 18 17 18 14 7 6 12 13 12 9 8 8 7 9 9 9 11 10 7 10 19 27
64 59 57 55 55 51 51 46 42 39 35 33 30 28 25 23 21 20 19 18 18 19 19 17 10 14 21 23 13 14 7 7 7 7 9 10 11 12 9 11 11 12 15
65 62 61 62 59 56 54 51 50 47 43 40 37 34 31 28 26 23 22 21 21 21 23 22 20 19 23 16 14 14 14 8 8 9 11 15 15 12 13 15 17 16 16
67 66 67 67 64 63 59 57 55 52 48 46 43 40 38 34 29 27 25 24 24 24 24 21 23 31 26 15 17 22 9 16 9 10 14 12 12 13 11 11 11 13 14
68 70 70 69 68 68 65 63 60 56 54 51 49 47 43 39 34 32 28 28 29 27 25 27 26 23 27 26 26 26 22 20 17 16 16 16 15 14 15 14 14 14 13
68 70 73 74 73 73 70 67 64 62 60 55 53 49 46 44 40 38 35 33 32 31 30 33 34 32 34 30 29 30 32 28 26 21 20 18 18 18 18 18 18 19 19
69 67 72 77 81 81 76 70 69 67 66 62 58 54 52 50 48 45 41 38 36 36 37 37 38 37 37 36 34 31 33 35 25 21 21 21 22 22 22 21 22 22 21
65 65 66 75 80 81 77 77 77 76 73 72 68 57 40 52 52 53 49 48 44 43 43 42 42 40 40 39 40 40 42 36 27 24 23 22 21 20 21 20 20 20 20
59 66 65 69 79 82 80 80 81 81 83 80 77 57 26 27 37 50 56 54 53 50 49 49 48 45 43 44 44 43 40 34 32 27 23 21 20 20 21 21 20 20 20
50 59 65 65 69 79 82 82 84 85 85 86 81 80 77 52 33 28 43 55 59 57 53 53 52 49 47 49 45 42 39 37 34 31 27 25 23 22 21 21 22 22 23
36 38 48 57 61 72 79 81 87 90 92 92 95 90 85 69 58 55 45 51 54 56 56 56 54 54 52 52 46 44 41 42 38 34 30 27 26 24 23 23 24 25 26
26 28 33 46 54 58 68 76 83 89 91 94 97 96 97 93 85 66 59 58 55 55 57 59 60 60 58 57 54 48 46 45 42 39 35 31 29 28 27 26 27 28 29
23 29 31 29 38 49 58 68 74 83 89 93 98 102 100 100 97 90 82 59 58 62 59 63 66 67 66 63 62 55 48 48 46 43 38 34 32 30 29 30 32 33 33
26 29 30 37 35 35 41 53 69 74 82 90 95 99 104 103 100 98 94 83 66 63 69 67 69 70 72 71 67 59 54 53 51 47 41 38 36 35 34 34 34 34 34
23 22 32 39 41 42 40 43 54 67 75 83 90 95 102 106 105 101 101 98 84 71 77 78 73 69 69 73 72 67 60 58 56 52 46 43 40 38 37 36 36 35 34
35 34 33 30 32 38 43 43 48 53 65 75 82 90 96 101 105 107 105 104 101 95 94 78 76 76 71 71 73 71 66 64 64 59 53 49 47 44 40 37 35 36 36
48 47 42 38 37 34 35 42 47 50 56 63 71 82 90 93 100 105 108 108 104 99 98 87 83 77 74 72 73 74 72 74 68 66 60 57 53 48 43 38 37 37 37
43 50 52 53 50 44 41 40 43 46 54 63 66 72 81 85 94 99 104 110 109 107 106 95 90 91 85 78 75 76 79 79 75 73 68 63 59 53 48 42 40 39 41
46 48 50 54 57 59 56 49 50 51 49 57 65 71 75 77 87 92 99 108 111 109 105 107 95 95 94 89 83 81 84 85 81 80 76 69 66 59 51 46 44 43 42
68 67 65 61 60 61 60 59 58 56 56 62 63 68 73 75 83 88 91 101 104 111 107 108 113 108 105 100 92 89 91 91 90 89 84 77 71 64 57 52 48 46 44
83 81 81 79 72 66 66 65 63 62 62 63 65 71 73 73 76 81 90 96 103 105 108 108 113 111 114 109 110 104 97 91 95 95 90 83 81 74 63 57 53 51 47
88 92 93 93 92 87 78 69 70 72 71 69 69 68 70 76 76 75 83 94 99 103 111 113 111 122 126 127 119 112 100 101 103 101 92 91 88 80 69 64 58 55 51
92 96 99 99 101 101 99 93 82 79 80 80 79 74 73 75 76 79 81 84 95 107 111 108 113 123 119 130 127 118 113 107 108 102 96 99 93 87 76 69 64 59 54
105 108 111 111 112 111 108 106 104 99 95 91 87 84 81 78 77 78 79 87 88 96 111 114 119 117 110 109 118 121 119 112 108 103 92 89 91 92 80 74 69 61 55
116 120 122 126 128 129 122 119 114 107 111 110 102 94 88 88 83 77 82 86 87 93 96 103 119 113 108 109 109 97 105 112 110 110 102 94 88 84 82 78 70 63 58
107 112 125 134 136 138 136 133 120 97 100 117 119 110 101 94 89 79 77 85 93 101 94 92 99 110 111 107 113 113 107 115 114 93 110 94 84 79 65 76 69 64 61
Wind_Direction_500mb
238 237 236 235 234 231 230 228 224 225 225 227 229 233 237 244 252 262 264 264 263 260 256 258 255 257 162 150 173 210 263 272 269 282 271 271 263 248 242 244 244 237 238
241 240 235 238 236 234 233 233 229 229 230 232 235 238 242 247 254 262 267 268 264 262 258 252 226 163 167 169 193 241 290 285 282 246 247 252 247 246 231 226 223 225 223
242 240 236 237 239 238 235 232 230 229 231 233 236 239 242 245 249 255 262 264 265 259 252 244 199 185 203 207 198 221 282 257 268 226 215 218 227 221 207 206 212 217 225
245 242 238 237 239 240 239 235 233 232 233 233 235 237 239 243 246 249 250 253 253 250 249 242 229 200 211 216 206 241 259 262 292 259 258 269 260 245 241 229 222 219 222
245 245 243 240 240 241 240 238 236 236 238 236 237 238 241 243 246 250 251 251 253 253 243 232 231 237 235 229 239 253 261 270 270 271 271 272 271 265 258 251 247 244 240
250 246 243 242 240 240 239 238 236 234 235 237 238 240 241 242 244 247 247 250 250 255 246 241 239 234 232 234 238 245 255 264 256 256 256 256 257 258 256 252 249 248 243
256 250 246 243 242 241 241 240 238 233 232 230 231 235 237 241 242 245 247 250 250 250 249 242 241 238 239 239 240 242 252 260 268 266 257 254 250 251 251 249 247 248 249
257 257 250 246 246 246 241 237 236 232 230 232 229 232 236 241 244 246 249 252 252 251 251 246 242 240 238 237 237 236 244 265 276 273 271 268 263 258 261 265 269 269 268
252 259 257 251 250 250 247 246 242 238 235 233 232 225 211 226 233 239 241 245 249 249 250 247 244 240 237 238 243 253 261 265 266 263 254 253 257 262 269 273 277 279 280
259 261 262 259 254 255 252 248 247 244 240 238 234 231 232 237 218 220 238 241 243 246 246 244 244 237 235 242 247 251 258 258 258 256 253 253 256 259 264 269 272 273 272
279 270 265 263 258 255 256 253 250 247 244 242 241 240 232 232 236 238 234 233 237 242 241 245 242 238 237 245 247 249 249 250 250 249 251 253 255 260 263 267 271 273 274
289 289 273 261 259 257 258 258 256 253 250 249 246 243 242 236 231 231 236 240 245 246 247 249 245 241 239 246 249 247 246 247 245 245 244 248 250 252 253 255 258 263 266
299 305 297 279 270 264 261 262 260 258 255 252 250 249 247 244 246 247 245 244 245 241 240 243 244 243 242 242 246 249 248 244 242 242 243 245 248 251 254 258 261 262 264
291 278 279 288 289 278 267 262 262 262 261 257 253 251 251 250 247 246 246 241 239 241 243 244 249 248 246 244 244 247 244 241 240 238 237 238 239 244 249 255 261 265 267
339 312 280 281 282 283 278 271 265 262 262 263 260 255 252 253 252 249 248 247 242 243 243 245 245 250 249 246 243 245 242 238 237 236 237 237 237 241 248 256 262 265 264
340 338 337 321 303 292 287 277 271 267 265 263 264 262 257 252 252 253 250 250 247 246 251 253 254 256 254 250 245 243 240 237 233 231 233 235 237 240 245 250 256 260 262
339 339 336 330 325 314 296 287 282 275 267 266 266 265 264 261 255 252 252 251 249 246 246 250 254 252 248 247 245 241 236 237 232 231 231 232 235 240 245 249 252 255 259
330 330 331 331 331 322 311 303 288 283 277 272 268 267 267 265 261 258 254 253 250 247 245 244 246 247 245 245 245 243 237 237 233 230 232 234 235 237 242 247 252 256 259
331 327 322 319 319 321 322 318 303 294 280 274 273 269 265 265 265 260 256 254 254 251 247 243 241 245 247 244 240 237 236 234 233 232 231 234 236 237 240 243 248 253 256
322 322 322 319 315 312 313 314 312 307 297 287 277 271 269 263 261 263 259 255 254 253 248 244 240 240 244 243 238 234 232 232 231 231 231 234 237 237 238 242 245 250 255
314 313 311 310 309 307 306 306 305 306 305 300 291 284 274 267 263 260 260 259 254 250 250 244 240 237 236 233 232 234 233 235 234 230 230 233 236 236 234 237 240 243 247
305 305 304 304 302 301 300 301 302 302 300 296 294 291 287 281 268 261 258 256 255 253 248 243 239 239 239 238 237 236 233 229 231 230 228 232 234 234 232 234 237 239 241
302 300 300 298 297 296 296 295 293 292 293 293 294 294 291 286 283 276 264 256 252 251 252 248 242 243 240 241 239 236 234 235 237 239 231 232 232 233 230 231 232 234 238
297 295 293 292 292 290 291 292 292 290 286 286 288 290 291 290 286 283 278 267 256 250 247 245 246 249 246 249 248 246 246 243 237 235 233 231 231 230 228 227 229 231 232
294 291 289 288 288 286 284 284 285 285 285 284 282 283 285 288 288 285 280 275 269 263 252 245 246 245 246 245 248 240 235 231 229 230 227 228 225 225 224 223 224 225 222
286 287 288 288 287 286 282 282 282 279 278 279 280 279 279 280 283 283 274 269 267 269 263 255 242 240 238 240 242 244 241 236 230 227 226 219 217 213 214 219 220 221 219
Wind_Speed_850mb
59 57 53 50 50 47 46 43 39 35 32 29 26 24 21 19 19 18 16 16 18 18 17 18 14 7 6 12 13 12 9 8 8 7 9 9 9 11 10 7 10 19 27
64 59 57 55 55 51 51 46 42 39 35 33 30 28 25 23 21 20 19 18 18 19 19 17 10 14 21 23 13 14 7 7 7 7 9 10 11 12 9 11 11 12 15
65 62 61 62 59 56 54 51 50 47 43 40 37 34 31 28 26 23 22 21 21 21 23 22 20 19 23 16 14 14 14 8 8 9 11 15 15 12 13 15 17 16 16
67 66 67 67 64 63 59 57 55 52 48 46 43 40 38 34 29 27 25 24 24 24 24 21 23 31 26 15 17 22 9 16 9 10 14 12 12 13 11 11 11 13 14
68 70 70 69 68 68 65 63 60 56 54 51 49 47 43 39 34 32 28 28 29 27 25 27 26 23 27 26 26 26 22 20 17 16 16 16 15 14 15 14 14 14 13
68 70 73 74 73 73 70 67 64 62 60 55 53 49 46 44 40 38 35 33 32 31 30 33 34 32 34 30 29 30 32 28 26 21 20 18 18 18 18 18 18 19 19
69 67 72 77 81 81 76 70 69 67 66 62 58 54 52 50 48 45 41 38 36 36 37 37 38 37 37 36 34 31 33 35 25 21 21 21 22 22 22 21 22 22 21
65 65 66 75 80 81 77 77 77 76 73 72 68 57 40 52 52 53 49 48 44 43 43 42 42 40 40 39 40 40 42 36 27 24 23 22 21 20 21 20 20 20 20
59 66 65 69 79 82 80 80 81 81 83 80 77 57 26 27 37 50 56 54 53 50 49 49 48 45 43 44 44 43 40 34 32 27 23 21 20 20 21 21 20 20 20
50 59 65 65 69 79 82 82 84 85 85 86 81 80 77 52 33 28 43 55 59 57 53 53 52 49 47 49 45 42 39 37 34 31 27 25 23 22 21 21 22 22 23
36 38 48 57 61 72 79 81 87 90 92 92 95 90 85 69 58 55 45 51 54 56 56 56 54 54 52 52 46 44 41 42 38 34 30 27 26 24 23 23 24 25 26
26 28 33 46 54 58 68 76 83 89 91 94 97 96 97 93 85 66 59 58 55 55 57 59 60 60 58 57 54 48 46 45 42 39 35 31 29 28 27 26 27 28 29
23 29 31 29 38 49 58 68 74 83 89 93 98 102 100 100 97 90 82 59 58 62 59 63 66 67 66 63 62 55 48 48 46 43 38 34 32 30 29 30 32 33 33
26 29 30 37 35 35 41 53 69 74 82 90 95 99 104 103 100 98 94 83 66 63 69 67 69 70 72 71 67 59 54 53 51 47 41 38 36 35 34 34 34 34 34
23 22 32 39 41 42 40 43 54 67 75 83 90 95 102 106 105 101 101 98 84 71 77 78 73 69 69 73 72 67 60 58 56 52 46 43 40 38 37 36 36 35 34
35 34 33 30 32 38 43 43 48 53 65 75 82 90 96 101 105 107 105 104 101 95 94 78 76 76 71 71 73 71 66 64 64 59 53 49 47 44 40 37 35 36 36
48 47 42 38 37 34 35 42 47 50 56 63 71 82 90 93 100 105 108 108 104 99 98 87 83 77 74 72 73 74 72 74 68 66 60 57 53 48 43 38 37 37 37
43 50 52 53 50 44 41 40 43 46 54 63 66 72 81 85 94 99 104 110 109 107 106 95 90 91 85 78 75 76 79 79 75 73 68 63 59 53 48 42 40 39 41
46 48 50 54 57 59 56 49 50 51 49 57 65 71 75 77 87 92 99 108 111 109 105 107 95 95 94 89 83 81 84 85 81 80 76 69 66 59 51 46 44 43 42
68 67 65 61 60 61 60 59 58 56 56 62 63 68 73 75 83 88 91 101 104 111 107 108 113 108 105 100 92 89 91 91 90 89 84 77 71 64 57 52 48 46 44
83 81 81 79 72 66 66 65 63 62 62 63 65 71 73 73 76 81 90 96 103 105 108 108 113 111 114 109 110 104 97 91 95 95 90 83 81 74 63 57 53 51 47
88 92 93 93 92 87 78 69 70 72 71 69 69 68 70 76 76 75 83 94 99 103 111 113 111 122 126 127 119 112 100 101 103 101 92 91 88 80 69 64 58 55 51
92 96 99 99 101 101 99 93 82 79 80 80 79 74 73 75 76 79 81 84 95 107 111 108 113 123 119 130 127 118 113 107 108 102 96 99 93 87 76 69 64 59 54
105 108 111 111 112 111 108 106 104 99 95 91 87 84 81 78 77 78 79 87 88 96 111 114 119 117 110 109 118 121 119 112 108 103 92 89 91 92 80 74 69 61 55
116 120 122 126 128 129 122 119 114 107 111 110 102 94 88 88 83 77 82 86 87 93 96 103 119 113 108 109 109 97 105 112 110 110 102 94 88 84 82 78 70 63 58
107 112 125 134 136 138 136 133 120 97 100 117 119 110 101 94 89 79 77 85 93 101 94 92 99 110 111 107 113 113 107 115 114 93 110 94 84 79 65 76 69 64 61
Wind_Direction_850mb
238 237 236 235 234 231 230 228 224 225 225 227 229 233 237 244 252 262 264 264 263 260 256 258 255 257 162 150 173 210 263 272 269 282 271 271 263 248 242 244 244 237 238
241 240 235 238 236 234 233 233 229 229 230 232 235 238 242 247 254 262 267 268 264 262 258 252 226 163 167 169 193 241 290 285 282 246 247 252 247 246 231 226 223 225 223
242 240 236 237 239 238 235 232 230 229 231 233 236 239 242 245 249 255 262 264 265 259 252 244 199 185 203 207 198 221 282 257 268 226 215 218 227 221 207 206 212 217 225
245 242 238 237 239 240 239 235 233 232 233 233 235 237 239 243 246 249 250 253 253 250 249 242 229 200 211 216 206 241 259 262 292 259 258 269 260 245 241 229 222 219 222
245 245 243 240 240 241 240 238 236 236 238 236 237 238 241 243 246 250 251 251 253 253 243 232 231 237 235 229 239 253 261 270 270 271 271 272 271 265 258 251 247 244 240
250 246 243 242 240 240 239 238 236 234 235 237 238 240 241 242 244 247 247 250 250 255 246 241 239 234 232 234 238 245 255 264 256 256 256 256 257 258 256 252 249 248 243
256 250 246 243 242 241 241 240 238 233 232 230 231 235 237 241 242 245 247 250 250 250 249 242 241 238 239 239 240 242 252 260 268 266 257 254 250 251 251 249 247 248 249
257 257 250 246 246 246 241 237 236 232 230 232 229 232 236 241 244 246 249 252 252 251 251 246 242 240 238 237 237 236 244 265 276 273 271 268 263 258 261 265 269 269 268
252 259 257 251 250 250 247 246 242 238 235 233 232 225 211 226 233 239 241 245 249 249 250 247 244 240 237 238 243 253 261 265 266 263 254 253 257 262 269 273 277 279 280
259 261 262 259 254 255 252 248 247 244 240 238 234 231 232 237 218 220 238 241 243 246 246 244 244 237 235 242 247 251 258 258 258 256 253 253 256 259 264 269 272 273 272
279 270 265 263 258 255 256 253 250 247 244 242 241 240 232 232 236 238 234 233 237 242 241 245 242 238 237 245 247 249 249 250 250 249 251 253 255 260 263 267 271 273 274
289 289 273 261 259 257 258 258 256 253 250 249 246 243 242 236 231 231 236 240 245 246 247 249 245 241 239 246 249 247 246 247 245 245 244 248 250 252 253 255 258 263 266
299 305 297 279 270 264 261 262 260 258 255 252 250 249 247 244 246 247 245 244 245 241 240 243 244 243 242 242 246 249 248 244 242 242 243 245 248 251 254 258 261 262 264
291 278 279 288 289 278 267 262 262 262 261 257 253 251 251 250 247 246 246 241 239 241 243 244 249 248 246 244 244 247 244 241 240 238 237 238 239 244 249 255 261 265 267
339 312 280 281 282 283 278 271 265 262 262 263 260 255 252 253 252 249 248 247 242 243 243 245 245 250 249 246 243 245 242 238 237 236 237 237 237 241 248 256 262 265 264
340 338 337 321 303 292 287 277 271 267 265 263 264 262 257 252 252 253 250 250 247 246 251 253 254 256 254 250 245 243 240 237 233 231 233 235 237 240 245 250 256 260 262
339 339 336 330 325 314 296 287 282 275 267 266 266 265 264 261 255 252 252 251 249 246 246 250 254 252 248 247 245 241 236 237 232 231 231 232 235 240 245 249 252 255 259
330 330 331 331 331 322 311 303 288 283 277 272 268 267 267 265 261 258 254 253 250 247 245 244 246 247 245 245 245 243 237 237 233 230 232 234 235 237 242 247 252 256 259
331 327 322 319 319 321 322 318 303 294 280 274 273 269 265 265 265 260 256 254 254 251 247 243 241 245 247 244 240 237 236 234 233 232 231 234 236 237 240 243 248 253 256
322 322 322 319 315 312 313 314 312 307 297 287 277 271 269 263 261 263 259 255 254 253 248 244 240 240 244 243 238 234 232 232 231 231 231 234 237 237 238 242 245 250 255
314 313 311 310 309 307 306 306 305 306 305 300 291 284 274 267 263 260 260 259 254 250 250 244 240 237 236 233 232 234 233 235 234 230 230 233 236 236 234 237 240 243 247
305 305 304 304 302 301 300 301 302 302 300 296 294 291 287 281 268 261 258 256 255 253 248 243 239 239 239 238 237 236 233 229 231 230 228 232 234 234 232 234 237 239 241
302 300 300 298 297 296 296 295 293 292 293 293 294 294 291 286 283 276 264 256 252 251 252 248 242 243 240 241 239 236 234 235 237 239 231 232 232 233 230 231 232 234 238
297 295 293 292 292 290 291 292 292 290 286 286 288 290 291 290 286 283 278 267 256 250 247 245 246 249 246 249 248 246 246 243 237 235 233 231 231 230 228 227 229 231 232
294 291 289 288 288 286 284 284 285 285 285 284 282 283 285 288 288 285 280 275 269 263 252 245 246 245 246 245 248 240 235 231 229 230 227 228 225 225 224 223 224 225 222
286 287 288 288 287 286 282 282 282 279 278 279 280 279 279 280 283 283 274 269 267 269 263 255 242 240 238 240 242 244 241 236 230 227 226 219 217 213 214 219 220 221 219